07.05.2024;21:00;64
07.05.2024;20:00;63
07.05.2024;19:00;55
07.05.2024;18:00;49
07.05.2024;17:00;56
07.05.2024;16:00;51
07.05.2024;15:00;54
07.05.2024;14:00;48
07.05.2024;13:00;47
07.05.2024;12:00;48
07.05.2024;11:00;47
07.05.2024;10:00;43
07.05.2024;09:00;45
07.05.2024;08:00;36
07.05.2024;07:00;42
07.05.2024;06:00;53
07.05.2024;05:00;58
07.05.2024;04:00;66
07.05.2024;03:00;61
07.05.2024;02:00;53
07.05.2024;01:00;62
07.05.2024;00:00;66
06.05.2024;23:00;69
06.05.2024;22:00;78
06.05.2024;21:00;70
06.05.2024;20:00;80
06.05.2024;19:00;86
06.05.2024;18:00;84
06.05.2024;17:00;89
06.05.2024;16:00;82
06.05.2024;15:00;80
06.05.2024;14:00;77
06.05.2024;13:00;78
06.05.2024;12:00;78
06.05.2024;11:00;49
06.05.2024;10:00;25
06.05.2024;09:00;15
06.05.2024;08:00;9
06.05.2024;07:00;8
06.05.2024;06:00;9
06.05.2024;05:00;10
06.05.2024;04:00;14
06.05.2024;03:00;17
06.05.2024;02:00;19
06.05.2024;01:00;25
06.05.2024;00:00;25
05.05.2024;23:00;29
05.05.2024;22:00;26
